CW2640 Weather Reports


Display with metric or nautical units.
time (UTC)temp
F
wind
direction
speed
MPH
gust
MPH
rain 1hr
in
rain 24hr
in
rain mn
in
humidity
%
barometer
mb
20260505151247 71 105 0.0 0.0 0.00 0.00 0.00 69 1015.2
20260505124233 57 80 0.0 0.0 0.00 0.00 0.00 93 1014.6
20260505121230 54 80 0.0 0.0 0.00 0.00 0.00 99 1014.2
20260505114229 52 80 0.0 0.0 0.00 0.00 0.00 99 1014.0
20260505111225 52 146 0.0 0.0 0.00 0.00 0.00 99 1013.1
20260505101217 53 170 0.0 0.0 0.00 0.00 0.00 98 1013.2
20260505094214 54 170 0.0 0.0 0.00 0.00 0.00 97 1013.2
20260505091209 55 170 0.0 0.0 0.00 0.00 0.00 95 1013.4
20260505084208 55 170 0.0 0.0 0.00 0.00 0.00 94 1013.6
20260505081205 55 170 0.0 0.0 0.00 0.00 0.00 94 1013.8
20260505074202 56 170 0.0 0.0 0.00 0.00 0.00 93 1013.8
20260505071201 56 170 0.0 0.0 0.00 0.00 0.00 93 1013.9
20260505064200 55 171 0.0 0.0 0.00 0.00 0.00 94 1013.7
20260505061159 55 176 0.0 0.0 0.00 0.00 0.00 92 1013.9
20260505054158 55 183 0.0 0.0 0.00 0.00 0.00 91 1014.1
20260505051153 56 188 0.0 0.0 0.00 0.00 0.00 89 1013.8
20260505041151 58 194 0.0 0.0 0.00 0.00 0.00 86 1013.8
20260505034150 60 194 0.0 0.0 0.00 0.00 0.00 84 1013.9
20260505031148 61 192 0.0 0.0 0.00 0.00 0.00 79 1013.9
20260505024147 61 192 0.0 0.0 0.00 0.00 0.00 78 1013.7
20260505021142 63 194 0.0 0.0 0.00 0.00 0.00 74 1013.9
20260505014138 64 197 0.0 0.0 0.00 0.00 0.00 72 1013.5
20260505011133 67 205 0.0 0.0 0.00 0.00 0.00 64 1013.3
20260505004128 69 210 0.0 0.0 0.00 0.00 0.00 61 1012.9
20260505001124 73 216 0.0 0.0 0.00 0.00 0.00 52 1012.8
20260504234123 74 219 0.0 0.0 0.00 0.00 0.00 49 1012.9
20260504231120 75 219 0.0 0.0 0.00 0.00 0.00 48 1013.0
20260504224120 76 216 0.0 0.0 0.00 0.00 0.00 46 1013.3
20260504221119 77 194 0.0 0.0 0.00 0.00 0.00 46 1013.5
20260504214116 77 150 0.0 0.0 0.00 0.00 0.00 45 1013.6
20260504211114 78 109 0.0 0.0 0.00 0.00 0.00 46 1013.7
20260504204112 79 105 0.0 0.0 0.00 0.00 0.00 44 1014.1
20260504201111 79 103 0.0 0.0 0.00 0.00 0.00 41 1014.4
20260504194107 77 102 0.0 0.0 0.00 0.00 0.00 45 1014.9
20260504191103 78 109 0.0 0.0 0.00 0.00 0.00 47 1015.0
20260504184103 77 105 0.0 0.0 0.00 0.00 0.00 54 1015.2
20260504181059 77 101 0.0 0.0 0.00 0.00 0.00 51 1015.8
20260504174056 75 97 0.0 0.0 0.00 0.00 0.00 51 1016.4
20260504171055 76 88 0.0 0.0 0.00 0.00 0.00 50 1016.5